Flag for Finland Weather past 2 weeks in Pori, Finland

Now
27 °F

Sunny.


Feels Like: 27 °F
Forecast: 37 / 49 °F
Wind: 2 mph from North

Location: Pori Airport


UV Index: 0 (Low)

Visibility: 10 mi


Pressure: 30.21 "Hg

Humidity: 93%

Dew point: 25 °F

Location of PoriLocation

Historic Weather in Pori

°F

Pori temperature yesterday

Maximum temperature yesterday: 46 °F (at 2:20 PM)
Minimum temperature yesterday: 32 °F (at 11:50 PM)
Average temperature yesterday: 40 °F

Past Weeks' High & Low Weather Summary

 TemperatureHumidityPressure
High54 °F (Apr 12, 2:20 PM)100% (Apr 1, 6:20 AM)30.24 "Hg (Apr 1, 6:20 AM)
Low19 °F (Apr 2, 5:50 AM)18% (Apr 9, 5:50 PM)29.21 "Hg (Apr 14, 5:50 AM)
Average38 °F71%29.83 "Hg
* Reported Apr 1 6:20 AM — Apr 16 6:20 AM, Pori, Weather by CustomWeather, © 2014

Note: Actual official high and low records may vary slightly from our data, if they occured in-between our weather recording intervals... More about our weather records

Advertising

Historic Weather Conditions — Data for Previous 24 hours

 ConditionsComfort  
Time TempWeatherWind HumidityBarometerVisibility
6:20 AM
Apr 16
25 °FClear.1 mph93%30.21 "Hg10 mi
5:50 AM25 °FPassing clouds.3 mph100%30.21 "HgN/A
5:20 AM25 °FIce fog.No wind93%30.21 "Hg6 mi
4:50 AM27 °FClear.1 mph93%30.18 "Hg10 mi
4:20 AM28 °FClear.2 mph86%30.18 "Hg10 mi
3:50 AM28 °FClear.5 mph86%30.18 "Hg10 mi
1:50 AM34 °FPassing clouds.5 mph75%30.15 "HgN/A
1:20 AM34 °FClear.6 mph75%30.15 "Hg10 mi
12:50 AM34 °FClear.6 mph75%30.12 "Hg10 mi
12:20 AM32 °FClear.7 mph80%30.12 "Hg10 mi
11:50 PM
Apr 15
32 °FClear.6 mph75%30.12 "Hg10 mi
11:20 PM34 °FClear.6 mph75%30.09 "Hg10 mi
10:50 PM36 °FClear.6 mph70%30.09 "Hg10 mi
10:20 PM36 °FClear.5 mph70%30.09 "Hg10 mi
9:50 PM36 °FSunny.7 mph70%30.09 "Hg10 mi
9:20 PM37 °FSunny.10 mph60%30.07 "Hg10 mi
8:50 PM37 °FSunny.10 mph60%30.07 "Hg10 mi
8:20 PM39 °FSunny.13 mph56%30.04 "Hg10 mi
7:50 PM41 °FSunny.13 mph57%30.04 "Hg10 mi
7:20 PM41 °FPassing clouds.15 mph53%30.04 "HgN/A
6:50 PM43 °FPassing clouds.15 mph49%30.01 "HgN/A
6:20 PM45 °FPassing clouds.16 mph46%30.01 "HgN/A
5:50 PM45 °FPassing clouds.18 mph42%29.98 "HgN/A
5:20 PM45 °FPassing clouds.20 mph46%29.98 "HgN/A
4:50 PM45 °FPassing clouds.20 mph39%29.95 "HgN/A
4:20 PM45 °FPassing clouds.23 mph42%29.95 "HgN/A
3:50 PM45 °FPassing clouds.21 mph49%29.92 "HgN/A
3:20 PM45 °FScattered clouds.21 mph49%29.92 "HgN/A
2:50 PM45 °FScattered clouds.17 mph57%29.92 "HgN/A
2:20 PM46 °FPartly sunny.14 mph50%29.89 "HgN/A
1:50 PM45 °FPartly sunny.14 mph57%29.89 "HgN/A
1:20 PM45 °FPartly sunny.16 mph57%29.86 "HgN/A
12:50 PM43 °FPartly sunny.14 mph61%29.86 "HgN/A
12:20 PM43 °FPartly sunny.14 mph66%29.83 "HgN/A
11:50 AM43 °FPartly sunny.14 mph66%29.80 "HgN/A
11:20 AM45 °FPassing clouds.13 mph61%29.80 "HgN/A
10:50 AM43 °FScattered clouds.13 mph66%29.77 "HgN/A
10:20 AM43 °FPassing clouds.10 mph66%29.77 "HgN/A
9:50 AM41 °FPassing clouds.9 mph70%29.74 "HgN/A
9:20 AM39 °FPassing clouds.10 mph75%29.74 "HgN/A
7:50 AM39 °FPartly sunny.10 mph81%29.68 "HgN/A
Weather by CustomWeather, © 2014

See weather overview